星链-30767 (STARLINK-30767 )

导读

STARLINK-30767是美国SpaceX星链(Starlink)星座的成员,于2023年10月22日发射入轨,属于第二代星链网络的低轨通信卫星。它运行在约550公里近地轨道,采用Ku/Ka波段通信技术,配备自主星间激光链路与自主避撞系统,依靠氪霍尔推进器完成轨道维持与末期离轨。作为全球卫星互联网组网的一部分,该卫星旨在为全球用户提供低延迟宽带接入服务,设计服役寿命约5-7年,退役后会主动坠入大气层完全烧毁,减少空间碎片影响。

基本信息
目录编号:
58126
目录名称:
STARLINK-30767
国际标识:
2023-162J
轨道中心:
EARTH
卫星名称:
星链-30767
卫星全名:
星链-30767 (STARLINK-30767 )
卫星状态:
在轨 (已飞行1055 天)
发射日期:
2023-10-22 UTC
国别 :
美国 (US)
星等 :
--
该卫星已列入 空间交会检测服务 Space Conjunction Data Service (SCDS) ,当前飞行风险评估等级: 无高风险
轨道信息
数据来源 国际轨道数据 AOE轨道数据
星历时间 2026-09-11T10:49:56+0800
14小时前
查看轨道信息
2026-09-10T23:00:00+0800
1天前
查看轨道信息
半长轴 6861.212km 6861.202km
偏心率 0.0001107 0.0000925
轨道倾角 43.002° 43.002°
近地点辐角 273.861° 274.149°
升交点赤经 162.082° 164.867°
平近点角 86.212° 251.581°
近地点 482.315km 482.43km
远地点 483.835km 483.7km
周期 94.267分钟 94.267分钟
每日圈数 15.275714 15.27575
详细信息
固有亮度:
5
最大亮度:
0.3
卫星平台:
Starlink v2.0 mini
覆盖范围:
全球
运营商:
太空探索技术公司
运营商所在国:
美国
制造商(研发单位):
太空探索技术公司
制造商所在国:
美国
使用方式:
暂无
卫星简介
星链(Starlink)计划是由太空探索技术公司(SpaceX)提出的一个巨型低轨卫星互联网星座项目,计划在2019年至2024年间在太空搭建由约1.2万颗卫星组成的“星链”网络,其中1584颗将部署在地球上空550千米处的近地轨道,并从2020年开始工作。该卫星仍在工作。
2D轨道图
3D轨道图
轨道高度分析图
轨道倾角分析图
轨道综合分析图
查看轨道综合分析图
与全量物体交会距离演化趋势
与全量物体交会风险概率演化趋势